Weather reports worldwide

Advertisment
Albi, France (7632): temperature & dewpoint: 20.05.2019 02:00:00 - 26.05.2019 02:00:00 (CEST)Albi, France (7632): temperature 5cm: 20.05.2019 02:00:00 - 26.05.2019 02:00:00 (CEST)Albi, France (7632): temperature -20cm & temperature -100cm: 20.05.2019 02:00:00 - 26.05.2019 02:00:00 (CEST)Albi, France (7632): wind speed & gusts: 20.05.2019 02:00:00 - 26.05.2019 02:00:00 (CEST)Albi, France (7632): wind direction: 20.05.2019 02:00:00 - 26.05.2019 02:00:00 (CEST)Albi, France (7632): reduced air pressure: 20.05.2019 02:00:00 - 26.05.2019 02:00:00 (CEST)Albi, France (7632): visibility: 20.05.2019 02:00:00 - 26.05.2019 02:00:00 (CEST)Albi, France (7632): sunshine duration: 20.05.2019 02:00:00 - 26.05.2019 02:00:00 (CEST)Albi, France (7632): precipitation: 20.05.2019 02:00:00 - 26.05.2019 02:00:00 (CEST)
Date & Time tt [°C] td [°C] tt 5cm [°C] tt -20cm [°C] tt -100cm [°C] ff [km/h] ff [kn] fx [km/h] fx [kn] dd ppp [hPa] vv [km] sd [min] rr [mm]
26.05.2019 02:00:00 - - - - - - - - - - - - - -
26.05.2019 01:00:00 13,5 11,2 12,6 17,1 14,7 11 6 16 9 SW 1021,5 18 0 0,0
26.05.2019 00:00:00 14,0 10,6 12,8 17,1 14,7 10 5 20 11 SW 1021,5 20 0 0,0
25.05.2019 23:00:00 14,5 9,9 14,0 17,1 14,7 11 6 19 10 WSW 1021,3 20 0 0,0
25.05.2019 22:00:00 15,3 9,9 14,9 17,1 14,7 13 7 29 16 WSW 1020,5 20 0 0,0
25.05.2019 21:00:00 17,5 8,9 16,8 17,0 14,7 18 10 37 20 W 1019,5 20 56 0,0
25.05.2019 20:00:00 19,5 9,7 21,0 17,0 14,7 26 14 40 21 W 1018,7 20 51 0,0
25.05.2019 19:00:00 21,3 8,9 22,8 16,9 14,7 20 11 39 21 W 1018,1 20 53 0,0
25.05.2019 18:00:00 21,0 9,6 21,8 16,9 14,7 19 10 40 21 W 1017,8 20 42 0,0
25.05.2019 17:00:00 21,3 10,1 23,0 16,9 14,7 23 12 41 22 W 1017,4 20 37 0,0
25.05.2019 16:00:00 21,5 11,5 19,9 16,9 14,7 21 11 35 19 W 1017,7 20 11 0,0
25.05.2019 15:00:00 19,2 14,5 19,3 16,8 14,6 9 5 16 9 SSW 1018,2 20 0 0,0
25.05.2019 14:00:00 18,0 15,4 17,1 16,9 14,6 9 5 22 12 SW 1018,4 20 13 0,2
25.05.2019 13:00:00 18,5 16,1 18,3 16,9 14,6 9 5 22 12 SW 1018,9 20 7 0,0
25.05.2019 12:00:00 16,7 15,4 16,1 17,0 14,7 15 8 20 11 WSW 1019,4 14 0 0,0
25.05.2019 11:00:00 15,3 14,5 15,0 17,0 14,6 10 5 15 8 SW 1019,5 7 0 0,0
25.05.2019 10:00:00 14,7 14,1 14,6 17,0 14,6 7 4 11 6 WSW 1019,1 10 0 0,0
25.05.2019 09:00:00 14,4 13,8 14,1 17,0 14,6 6 3 11 6 WSW 1018,8 10 0 0,0
25.05.2019 08:00:00 14,0 13,4 13,5 17,1 14,6 7 4 11 6 WSW 1018,2 7 0 0,0
25.05.2019 07:00:00 13,5 12,9 13,3 17,1 14,6 5 3 9 5 WSW 1017,9 17 0 0,0
25.05.2019 06:00:00 13,3 12,7 13,3 17,1 14,6 5 3 10 5 SW 1017,8 19 0 0,0
25.05.2019 05:00:00 13,3 12,7 13,2 17,2 14,6 7 4 18 10 WSW 1017,5 20 0 0,0
25.05.2019 04:00:00 13,4 12,8 13,3 17,2 14,6 14 7 19 10 WSW 1017,6 14 0 0,2
25.05.2019 03:00:00 13,5 12,9 13,3 17,2 14,6 9 5 12 6 WSW 1017,6 17 0 1,4
25.05.2019 02:00:00 13,6 13,0 13,5 17,3 14,6 8 4 13 7 WSW 1018,0 8 0 2,6
25.05.2019 01:00:00 13,9 13,1 13,5 17,3 14,6 3 1 7 4 NW 1018,3 13 0 1,3
25.05.2019 00:00:00 13,7 12,9 13,3 17,3 14,5 0 0 4 2 N 1018,2 13 0 0,2
24.05.2019 23:00:00 13,6 12,8 13,2 17,3 14,5 3 2 6 3 WSW 1018,1 18 0 0,8
24.05.2019 22:00:00 13,8 12,7 13,2 17,3 14,5 2 1 18 10 WSW 1017,3 14 0 6,5
24.05.2019 21:00:00 15,2 14,2 14,9 17,3 14,5 11 6 19 11 WSW 1016,7 7 0 0,2
24.05.2019 20:00:00 15,5 14,4 15,2 17,3 14,5 11 6 17 9 SW 1016,4 15 0 0,4
24.05.2019 19:00:00 15,9 14,1 15,2 17,2 14,5 11 6 21 12 W 1016,6 15 0 0,4
24.05.2019 18:00:00 16,7 14,0 16,3 17,3 14,5 10 5 19 10 W 1016,7 20 0 0,0
24.05.2019 17:00:00 17,0 13,3 18,0 17,2 14,5 13 7 22 12 W 1016,5 20 0 0,0
24.05.2019 16:00:00 16,8 15,0 17,0 17,3 14,5 11 6 18 10 WSW 1016,7 20 0 0,0
24.05.2019 15:00:00 17,2 14,5 17,4 17,3 14,5 12 7 22 12 W 1016,8 20 0 0,0
24.05.2019 14:00:00 16,8 14,6 16,4 17,3 14,5 10 5 18 10 W 1017,0 20 0 0,2
24.05.2019 13:00:00 16,0 14,5 15,8 17,3 14,5 10 6 18 10 WSW 1017,4 20 0 0,0
24.05.2019 12:00:00 15,5 14,4 15,6 17,3 14,5 9 5 17 9 W 1017,6 18 0 1,0
24.05.2019 11:00:00 15,1 14,3 14,8 17,4 14,5 12 6 16 9 WSW 1017,6 8 0 1,4
24.05.2019 10:00:00 14,8 13,8 14,8 17,4 14,5 11 6 19 10 WSW 1017,7 7 0 0,6
24.05.2019 09:00:00 15,2 13,7 14,9 17,4 14,5 11 6 16 9 WSW 1017,2 13 0 0,2
24.05.2019 08:00:00 15,5 13,3 15,4 17,4 14,4 10 5 17 9 WSW 1017,0 19 0 0,0
24.05.2019 07:00:00 15,2 13,2 15,2 17,5 14,5 11 6 20 11 SW 1016,9 17 0 0,0
24.05.2019 06:00:00 15,3 13,1 15,2 17,5 14,4 10 6 19 10 SW 1016,8 17 0 0,0
24.05.2019 05:00:00 15,5 13,3 15,6 17,5 14,4 11 6 20 11 SW 1016,7 17 0 0,0
24.05.2019 04:00:00 15,9 13,7 15,9 17,5 14,4 14 8 21 11 SW 1016,6 18 0 0,0
24.05.2019 03:00:00 16,6 13,9 16,5 17,5 14,4 16 9 29 16 WSW 1016,6 20 0 0,0
24.05.2019 02:00:00 17,3 12,8 16,9 17,4 14,4 16 9 26 14 WSW 1016,5 20 0 0,0
24.05.2019 01:00:00 18,2 11,0 17,2 17,4 14,4 15 8 25 13 WSW 1016,4 20 0 0,0
24.05.2019 00:00:00 18,4 11,7 17,8 17,4 14,4 8 5 14 7 WSW 1016,4 20 0 0,0
23.05.2019 23:00:00 19,2 11,2 18,6 17,3 14,4 8 4 12 7 SW 1016,2 20 0 0,0
23.05.2019 22:00:00 19,9 11,1 19,2 17,2 14,4 8 4 11 6 SW 1015,8 20 0 0,0
23.05.2019 21:00:00 21,2 10,4 20,2 17,1 14,4 6 3 15 8 WSW 1015,2 20 0 0,0
23.05.2019 20:00:00 23,6 8,8 23,3 17,0 14,4 7 4 19 10 W 1014,6 20 26 0,0
23.05.2019 19:00:00 24,7 6,4 26,0 16,9 14,4 10 6 22 12 W 1014,7 20 55 0,0
23.05.2019 18:00:00 25,2 7,3 27,1 16,7 14,4 10 5 21 12 W 1014,9 20 50 0,0
23.05.2019 17:00:00 25,8 8,3 29,6 16,5 14,4 13 7 23 13 WSW 1014,8 20 58 0,0
23.05.2019 16:00:00 25,9 9,3 30,8 16,4 14,4 11 6 19 10 WSW 1015,2 20 57 0,0
23.05.2019 15:00:00 24,8 6,5 30,7 16,4 14,4 6 3 18 10 SW 1015,9 20 60 0,0
23.05.2019 14:00:00 24,0 6,7 30,4 16,3 14,4 4 2 16 9 N 1016,2 20 60 0,0
23.05.2019 13:00:00 23,9 9,5 30,1 16,4 14,4 6 3 17 9 W 1016,6 20 60 0,0
23.05.2019 12:00:00 22,5 10,3 28,9 16,4 14,4 6 3 14 8 SW 1017,3 20 60 0,0
23.05.2019 11:00:00 21,3 9,5 26,4 16,4 14,4 3 2 8 4 NE 1017,5 20 60 0,0
23.05.2019 10:00:00 20,0 9,8 22,7 16,4 14,4 2 1 9 5 ESE 1017,8 20 60 0,0
23.05.2019 09:00:00 16,6 9,3 16,6 16,5 14,4 4 2 16 9 NE 1017,8 20 60 0,0
23.05.2019 08:00:00 13,1 9,7 9,5 16,6 14,4 6 3 13 7 E 1017,9 20 51 0,0
23.05.2019 07:00:00 9,9 8,5 7,8 16,6 14,4 6 3 8 4 E 1018,0 20 11 0,0
23.05.2019 06:00:00 9,5 8,1 7,8 16,6 14,4 5 3 9 5 E 1017,9 20 0 0,0
23.05.2019 05:00:00 10,2 8,6 8,6 16,7 14,4 6 3 8 5 E 1017,8 20 0 0,0
23.05.2019 04:00:00 10,6 9,2 8,8 16,7 14,4 5 3 6 4 E 1017,8 20 0 0,0
23.05.2019 03:00:00 11,0 9,3 8,6 16,7 14,4 4 2 6 4 ENE 1017,9 20 0 0,0
23.05.2019 02:00:00 11,7 9,6 9,9 16,6 14,3 3 2 9 5 ENE 1018,0 20 0 0,0
23.05.2019 01:00:00 12,6 10,1 10,2 16,6 14,4 3 2 5 3 E 1018,1 20 0 0,0
23.05.2019 00:00:00 13,7 10,1 10,5 16,6 14,4 0 0 4 2 N 1018,1 20 0 0,0
22.05.2019 23:00:00 15,1 10,7 12,1 16,5 14,4 0 0 5 3 N 1018,0 20 0 0,0
22.05.2019 22:00:00 16,7 10,5 12,8 16,4 14,4 0 0 5 3 N 1017,5 20 0 0,0
22.05.2019 21:00:00 21,3 9,8 19,3 16,3 14,3 4 2 10 5 WSW 1016,7 20 52 0,0
22.05.2019 20:00:00 23,4 6,6 25,1 16,2 14,4 7 4 23 12 NNW 1016,4 20 60 0,0
22.05.2019 19:00:00 24,1 5,9 27,7 16,0 14,4 10 5 16 9 WNW 1016,4 20 60 0,0
22.05.2019 18:00:00 24,1 5,9 30,0 15,9 14,4 8 4 22 12 NNW 1016,8 20 60 0,0
22.05.2019 17:00:00 24,1 6,8 26,3 15,7 14,3 7 4 23 12 NW 1017,0 20 52 0,0
22.05.2019 16:00:00 23,7 7,7 28,2 15,7 14,4 14 7 25 14 W 1017,3 20 53 0,0
22.05.2019 15:00:00 23,4 8,7 25,7 15,5 14,3 9 5 25 14 WNW 1017,6 20 56 0,0
22.05.2019 14:00:00 22,1 10,6 26,1 15,5 14,3 12 6 19 10 SW 1018,1 20 58 0,0
22.05.2019 13:00:00 20,6 11,5 26,8 15,5 14,3 8 4 15 8 SW 1018,9 20 60 0,0
22.05.2019 12:00:00 18,8 11,4 25,2 15,5 14,4 3 2 11 6 NW 1019,2 20 60 0,0
22.05.2019 11:00:00 16,3 11,9 18,7 15,5 14,4 3 2 10 5 WSW 1019,6 20 54 0,0
22.05.2019 10:00:00 14,3 12,2 17,6 15,6 14,4 3 2 8 4 WNW 1019,9 20 60 0,0
22.05.2019 09:00:00 11,9 11,6 11,2 15,6 14,3 3 2 9 5 NE 1020,1 18 53 0,0
22.05.2019 08:00:00 9,7 9,2 9,4 15,6 14,3 4 2 7 4 ENE 1020,2 0,2 0 0,0
22.05.2019 07:00:00 8,8 8,3 9,1 15,7 14,4 2 1 5 3 E 1019,7 0,2 0 0,0
22.05.2019 06:00:00 9,0 8,5 9,0 15,7 14,4 4 2 6 4 ESE 1019,3 0,1 0 0,0
22.05.2019 05:00:00 9,5 9,0 9,7 15,7 14,4 5 3 6 4 E 1019,3 0,3 0 0,2
22.05.2019 04:00:00 9,8 9,3 9,0 15,7 14,4 4 2 6 3 E 1019,4 0,1 0 0,0
22.05.2019 03:00:00 9,9 9,3 8,1 15,7 14,4 0 0 4 2 N 1019,3 0,2 0 0,0
22.05.2019 02:00:00 10,0 9,4 7,7 15,7 14,4 0 0 3 2 N 1019,3 0,8 0 0,0
22.05.2019 01:00:00 10,9 10,1 8,3 15,7 14,4 0 0 5 3 N 1019,2 3,3 0 0,0
22.05.2019 00:00:00 11,9 11,0 10,6 15,6 14,4 3 2 4 2 SW 1019,1 1,8 0 0,0
21.05.2019 23:00:00 12,8 12,0 11,6 15,6 14,4 3 2 4 2 SSE 1019,1 16 0 0,0
21.05.2019 22:00:00 13,1 12,0 11,8 15,5 14,4 0 0 6 3 N 1018,6 13 0 0,0
21.05.2019 21:00:00 14,7 12,9 13,9 15,4 14,4 3 2 9 5 SSE 1018,0 20 42 0,0
21.05.2019 20:00:00 13,9 11,9 13,0 15,3 14,4 9 5 32 17 S 1017,3 20 0 7,6
21.05.2019 19:00:00 18,9 12,9 16,3 15,2 14,4 7 4 21 12 S 1016,7 20 30 0,0
21.05.2019 18:00:00 16,4 12,9 14,2 15,2 14,4 11 6 37 20 SSW 1016,9 20 19 1,6
21.05.2019 17:00:00 20,9 10,4 22,4 15,1 14,4 16 9 35 19 WSW 1016,4 20 47 0,0
21.05.2019 16:00:00 20,1 10,2 23,4 15,0 14,4 12 6 22 12 W 1017,0 20 40 0,2
21.05.2019 15:00:00 18,8 10,4 20,1 15,0 14,3 11 6 25 13 W 1017,4 20 20 0,0
21.05.2019 14:00:00 17,4 11,4 21,3 15,0 14,4 9 5 18 10 WSW 1017,8 20 36 0,0
21.05.2019 13:00:00 15,4 11,0 16,3 15,0 14,4 5 3 12 7 W 1018,5 18 22 0,0
21.05.2019 12:00:00 12,5 10,4 15,0 15,1 14,4 5 3 10 5 SW 1018,9 15 0 0,0
21.05.2019 11:00:00 11,6 10,8 12,4 15,1 14,4 0 0 10 6 N 1018,8 13 0 0,0
21.05.2019 10:00:00 10,2 9,6 10,5 15,1 14,4 3 1 9 5 WSW 1018,7 7 0 0,0
21.05.2019 09:00:00 9,8 9,2 10,2 15,2 14,4 6 3 10 5 SW 1018,2 0,6 0 0,0
21.05.2019 08:00:00 9,8 9,2 9,8 15,2 14,4 7 4 9 5 SW 1017,5 2,3 0 0,0
21.05.2019 07:00:00 9,2 8,6 8,4 15,3 14,4 2 1 6 4 E 1017,3 12 0 0,0
21.05.2019 06:00:00 8,1 7,5 6,3 15,3 14,4 0 0 4 2 N 1017,1 16 0 0,0
21.05.2019 05:00:00 7,4 6,7 5,0 15,4 14,4 2 1 5 3 E 1016,9 13 0 0,0
21.05.2019 04:00:00 7,7 6,9 4,5 15,4 14,4 3 1 5 3 E 1016,8 9 0 0,0
21.05.2019 03:00:00 8,4 7,5 6,0 15,4 14,4 0 0 3 2 N 1016,8 12 0 0,0
21.05.2019 02:00:00 9,4 8,6 6,1 15,4 14,4 2 1 5 3 NNE 1016,7 16 0 0,0
21.05.2019 01:00:00 9,6 8,7 6,8 15,4 14,4 0 0 3 2 N 1016,8 19 0 0,0
21.05.2019 00:00:00 10,4 9,3 7,4 15,4 14,4 2 1 4 2 E 1016,5 20 0 0,0
20.05.2019 23:00:00 11,5 9,7 7,9 15,4 14,4 0 0 4 2 N 1016,1 20 0 0,0
20.05.2019 22:00:00 13,2 10,6 11,5 15,3 14,4 0 0 12 6 N 1015,3 20 0 0,0
20.05.2019 21:00:00 15,0 10,2 14,1 15,3 14,4 7 4 19 10 W 1014,4 20 42 0,0
20.05.2019 20:00:00 15,3 9,6 15,4 15,3 14,4 9 5 15 8 WSW 1014,3 20 0 0,0
20.05.2019 19:00:00 14,8 9,2 14,9 15,2 14,4 8 4 27 15 NW 1014,1 20 0 0,0
20.05.2019 18:00:00 17,5 7,0 18,7 15,2 14,4 14 7 36 19 WSW 1013,6 20 13 0,0
20.05.2019 17:00:00 17,7 8,8 18,2 15,2 14,4 8 5 20 11 SW 1013,4 20 3 0,0
20.05.2019 16:00:00 17,5 7,8 19,2 15,2 14,4 10 5 22 12 WSW 1013,5 20 9 0,0
20.05.2019 15:00:00 16,0 9,0 14,7 15,2 14,4 10 6 23 12 WSW 1014,1 20 0 0,0
20.05.2019 14:00:00 14,8 7,1 14,8 15,2 14,4 16 9 30 16 WNW 1014,4 20 0 0,0
20.05.2019 13:00:00 15,7 8,2 15,6 15,2 14,4 14 8 26 14 W 1014,2 20 0 0,0
20.05.2019 12:00:00 13,7 9,5 14,2 15,3 14,4 16 8 24 13 WSW 1014,6 20 0 0,0
20.05.2019 11:00:00 13,2 9,3 13,2 15,3 14,4 13 7 23 12 W 1014,6 20 0 0,0
20.05.2019 10:00:00 11,9 9,5 12,0 15,3 14,4 10 6 19 11 W 1014,5 20 0 0,0
20.05.2019 09:00:00 11,3 9,4 11,1 15,3 14,4 12 7 22 12 W 1014,2 19 0 0,0
20.05.2019 08:00:00 10,9 9,2 10,9 15,3 14,4 13 7 22 12 W 1013,8 19 0 0,0
20.05.2019 07:00:00 10,8 8,9 10,7 15,4 14,4 14 8 26 14 WSW 1013,3 20 0 0,0
20.05.2019 06:00:00 10,8 8,9 10,7 15,4 14,4 16 8 29 16 WSW 1012,9 20 0 0,0
20.05.2019 05:00:00 11,2 9,1 10,9 15,4 14,4 15 8 25 14 WSW 1012,8 20 0 0,0
20.05.2019 04:00:00 11,6 9,3 11,5 15,5 14,4 15 8 29 16 WSW 1012,7 20 0 0,0
20.05.2019 03:00:00 12,0 9,6 12,0 15,5 14,4 16 8 25 13 WSW 1012,6 20 0 0,0
20.05.2019 02:00:00 11,9 10,1 11,5 15,5 14,4 13 7 21 11 WSW 1012,6 20 0 0,0

tt = temperature
td = dewpoint
tt 5cm = temperature 5cm
tt -20cm = temperature -20cm
tt -100cm = temperature -100cm
ff = wind speed
fx = gusts
dd = wind direction
ppp = reduced air pressure
vv = visibility
sd = sunshine duration
rr = precipitation

Next stations